Location: *
(45.5667°S, 177.5167°W)
Time: 16:53:30
(UTC+00:00)

ATLAS 5 CENTAUR R/B - Pass Details

Date: 29 May 2022
Orbit: 479 x 1172 km, 63.3° (Epoch: 29 May)

Event Time Altitude Azimuth Distance (km) Brightness Sun altitude
Rises 06:53:53 0° 359° (N) 4,034 5.8 -26.7°
Reaches altitude 10° 06:56:57 10° 8° (N) 3,089 5.1 -27.2°
Enters shadow 06:59:43 21° 24° (NNE) 2,367 4.3 -27.7°
